Home   Weather   Leicester   Past weeks

Flag for United Kingdom Past Weather in Leicester, England, United Kingdom — Yesterday and Last 2 Weeks

Now
37 °F

Passing clouds.


Feels Like: 31 °F
Forecast: 31 / 40 °F
Wind: 8 mph from East

Location: East Midlands

Current Time: Dec 4, 2016 at 6:20:15 am

Latest Report: Dec 4, 2016 at 5:50 am


Visibility: N/A

Pressure: 30.27 "Hg

Humidity: 87%

Dew Point: 34 °F

Location of LeicesterLocation

Past Weather in Leicester — Graph

°F

Leicester Temperature Yesterday

Maximum temperature yesterday: 45 °F (at 12:50 pm)
Minimum temperature yesterday: 34 °F (at 11:20 pm)
Average temperature yesterday: 41 °F

High & Low Weather Summary for the Past Weeks

 TemperatureHumidityPressure
High48 °F (Nov 21, 5:20 pm)100% (Nov 19, 10:50 pm)30.57 "Hg (Nov 19, 10:50 pm)
Low27 °F (Nov 29, 5:50 am)53% (Nov 28, 12:50 pm)28.94 "Hg (Nov 20, 5:50 am)
Average41 °F88%30.09 "Hg
* Reported Nov 19 5:20 am — Dec 4 5:20 am, Leicester, Weather by CustomWeather, © 2016

Note: Actual official high and low records may vary slightly from our data, if they occured in-between our weather recording intervals... More about our weather records

Advertising

Leicester Weather History for the Previous 24 Hours

Scroll right to see more
 ConditionsComfort  
Time TempWeatherWind HumidityBarometerVisibility
5:20 am
Sun, Dec 4
36 °FPassing clouds.8 mph87%30.27 "HgN/A
4:50 am36 °FPassing clouds.8 mph87%30.27 "HgN/A
4:20 am36 °FPassing clouds.10 mph87%30.27 "HgN/A
3:50 am37 °FPassing clouds.9 mph81%30.27 "HgN/A
3:20 am37 °FPassing clouds.10 mph87%30.30 "HgN/A
2:50 am37 °FPassing clouds.10 mph81%30.30 "HgN/A
2:20 am37 °FOvercast.8 mph81%30.30 "HgN/A
1:50 am36 °FOvercast.8 mph87%30.30 "HgN/A
1:20 am36 °FOvercast.8 mph87%30.30 "HgN/A
12:50 am36 °FOvercast.8 mph87%30.30 "HgN/A
12:20 am36 °FPassing clouds.8 mph87%30.30 "HgN/A
11:50 pm
Sat, Dec 3
36 °FChilly.8 mph87%30.30 "HgN/A
11:20 pm34 °FChilly.8 mph93%30.30 "HgN/A
10:50 pm36 °FPassing clouds.7 mph87%30.30 "HgN/A
10:20 pm36 °FPassing clouds.5 mph87%30.30 "HgN/A
9:50 pm36 °FOvercast.5 mph93%30.30 "HgN/A
9:20 pm37 °FOvercast.5 mph93%30.30 "HgN/A
8:50 pm37 °FOvercast.6 mph93%30.30 "HgN/A
8:20 pm37 °FOvercast.6 mph93%30.30 "HgN/A
7:50 pm39 °FPassing clouds.7 mph87%30.30 "HgN/A
7:20 pm39 °FPassing clouds.6 mph87%30.30 "HgN/A
6:50 pm39 °FPassing clouds.7 mph87%30.30 "HgN/A
6:20 pm41 °FOvercast.7 mph81%30.30 "HgN/A
5:50 pm41 °FPassing clouds.8 mph87%30.30 "HgN/A
5:20 pm41 °FPassing clouds.8 mph87%30.30 "HgN/A
4:50 pm43 °FPassing clouds.7 mph81%30.30 "HgN/A
4:20 pm43 °FPassing clouds.7 mph81%30.30 "HgN/A
3:50 pm43 °FPartly sunny.8 mph76%30.30 "HgN/A
3:20 pm43 °FPartly sunny.8 mph76%30.30 "HgN/A
2:50 pm43 °FPartly sunny.7 mph81%30.30 "HgN/A
2:20 pm45 °FPartly sunny.7 mph76%30.30 "HgN/A
1:50 pm45 °FPartly sunny.7 mph76%30.30 "HgN/A
1:20 pm45 °FPartly sunny.8 mph76%30.30 "HgN/A
12:50 pm45 °FPartly sunny.6 mph76%30.30 "HgN/A
12:20 pm43 °FPartly sunny.8 mph81%30.30 "HgN/A
11:50 am43 °FPartly sunny.6 mph81%30.30 "HgN/A
11:20 am43 °FPartly sunny.6 mph81%30.30 "HgN/A
10:50 am43 °FPartly sunny.7 mph76%30.33 "HgN/A
10:20 am43 °FPartly sunny.6 mph76%30.33 "HgN/A
9:50 am41 °FPartly sunny.6 mph81%30.33 "HgN/A
9:20 am41 °FPartly sunny.5 mph81%30.33 "HgN/A
8:50 am41 °FPartly sunny.7 mph81%30.33 "HgN/A
8:20 am39 °FPartly sunny.6 mph93%30.33 "HgN/A
7:50 am41 °FPassing clouds.6 mph87%30.30 "HgN/A
7:20 am41 °FOvercast.6 mph87%30.30 "HgN/A
6:50 am41 °FPassing clouds.3 mph93%30.30 "HgN/A
6:20 am41 °FPassing clouds.3 mph93%30.30 "HgN/A
Weather by CustomWeather, © 2016

See weather overviewHow to use our weather pages